Location: Audinghen
(50.8518°N, 1.6129°E)
Time: 19:54:45
(UTC+00:00)

ATLAS CENTAUR R/B - Pass Details

Date: 07 August 2020
Orbit: 476 x 670 km, 64.7° (Epoch: 19 September)

Event Time Altitude Azimuth Distance (km) Brightness Sun altitude
Rises 03:27:53 0° 167° (SSE) 2,774 4.6 -8.9°
Reaches altitude 10° 03:31:21 10° 137° (SE) 1,831 4.0 -8.5°
Maximum altitude 03:33:01 12° 113° (ESE) 1,668 4.2 -8.2°
Drops below altitude 10° 03:34:40 10° 88° (E) 1,790 4.8 -8.0°
Sets 03:37:57 0° 58° (ENE) 2,641 7.2 -7.6°
